EW0607 Weather Reports


Display with metric or nautical units.
time (UTC)temp
F
wind
direction
speed
MPH
gust
MPH
rain 1hr
in
rain 24hr
in
rain mn
in
humidity
%
barometer
mb
20260904024102 87 360 1.0 0.0 0.00 0.00 0.00 12 999.3
20260904023541 87 360 1.0 0.0 0.00 0.00 0.00 12 999.3
20260904023024 88 360 1.0 0.0 0.00 0.00 0.00 12 999.3
20260904022504 88 360 1.0 0.0 0.00 0.00 0.00 11 999.3
20260904022047 88 360 2.0 0.0 0.00 0.00 0.00 11 999.2
20260904021534 88 360 2.0 0.0 0.00 0.00 0.00 11 999.3
20260904021005 89 360 2.0 0.0 0.00 0.00 0.00 11 999.3
20260904020552 89 249 2.0 0.0 0.00 0.00 0.00 11 999.2
20260904020032 89 264 2.0 0.0 0.00 0.00 0.00 11 999.1
20260904015511 89 360 2.0 0.0 0.00 0.00 0.00 11 999.3
20260904015100 89 360 2.0 0.0 0.00 0.00 0.00 11 999.4
20260904014545 90 360 2.0 0.0 0.00 0.00 0.00 11 999.4
20260904014023 90 360 2.0 0.0 0.00 0.00 0.00 11 999.4
20260904013504 90 360 2.0 0.0 0.00 0.00 0.00 11 999.3
20260904013052 90 190 2.0 0.0 0.00 0.00 0.00 11 999.3
20260904012534 91 360 2.0 0.0 0.00 0.00 0.00 11 999.4
20260904012012 91 360 2.0 0.0 0.00 0.00 0.00 10 999.4
20260904011555 91 360 2.0 0.0 0.00 0.00 0.00 10 999.4
20260904011033 92 360 2.0 0.0 0.00 0.00 0.00 10 999.4
20260904010516 92 321 3.0 0.0 0.00 0.00 0.00 9 999.2
20260904010058 92 286 3.0 0.0 0.00 0.00 0.00 10 999.2
20260904005539 92 225 2.0 0.0 0.00 0.00 0.00 10 999.4
20260904005017 93 22 3.0 0.0 0.00 0.00 0.00 10 999.4
20260904004600 93 331 2.0 0.0 0.00 0.00 0.00 10 999.4
20260904004036 93 355 2.0 0.0 0.00 0.00 0.00 10 999.4
20260904003517 93 236 2.0 0.0 0.00 0.00 0.00 10 999.5
20260904003102 94 342 2.0 0.0 0.00 0.00 0.00 10 999.4
20260904002541 94 355 2.0 0.0 0.00 0.00 0.00 10 999.5
20260904002024 94 30 2.0 0.0 0.00 0.00 0.00 10 999.6
20260904001507 94 57 2.0 0.0 0.00 0.00 0.00 10 999.5
20260904001052 94 27 2.0 0.0 0.00 0.00 0.00 10 999.5
20260904000531 94 152 2.0 0.0 0.00 0.00 0.00 10 999.6
20260904000010 94 143 2.0 0.0 0.00 0.00 0.00 10 999.6
20260903235555 95 207 2.0 0.0 0.00 0.00 0.00 10 999.6
20260903235037 95 331 2.0 0.0 0.00 0.00 0.00 10 999.7
20260903234517 95 84 2.0 0.0 0.00 0.00 0.00 10 999.7
20260903234101 95 360 2.0 0.0 0.00 0.00 0.00 10 999.6
20260903233543 95 360 2.0 0.0 0.00 0.00 0.00 10 999.6
20260903233020 95 360 2.0 0.0 0.00 0.00 0.00 9 999.6
20260903232503 95 360 2.0 0.0 0.00 0.00 0.00 10 999.7
20260903232051 95 360 2.0 0.0 0.00 0.00 0.00 10 999.7
20260903231530 96 360 2.0 0.0 0.00 0.00 0.00 10 999.8
20260903231009 96 360 2.0 0.0 0.00 0.00 0.00 10 999.8
20260903230557 95 360 2.0 0.0 0.00 0.00 0.00 10 999.9
20260903230038 95 360 2.0 0.0 0.00 0.00 0.00 10 1000.0
20260903225515 96 360 2.0 0.0 0.00 0.00 0.00 9 999.9
20260903225056 96 360 2.0 0.0 0.00 0.00 0.00 10 1000.0
20260903224540 95 360 2.0 0.0 0.00 0.00 0.00 10 1000.0
20260903224015 96 360 2.0 0.0 0.00 0.00 0.00 10 1000.1
20260903223558 96 360 2.0 0.0 0.00 0.00 0.00 10 1000.1
20260903223036 96 360 2.0 0.0 0.00 0.00 0.00 10 1000.2
20260903222515 96 360 2.0 0.0 0.00 0.00 0.00 10 1000.3
20260903222102 96 360 2.0 0.0 0.00 0.00 0.00 10 1000.3
20260903221547 96 360 2.0 0.0 0.00 0.00 0.00 10 1000.4
20260903221023 96 360 2.0 0.0 0.00 0.00 0.00 10 1000.3
20260903220600 95 360 2.0 0.0 0.00 0.00 0.00 11 1000.5
20260903220042 95 360 2.0 0.0 0.00 0.00 0.00 10 1000.6
20260903215521 96 360 3.0 0.0 0.00 0.00 0.00 10 1000.6
20260903215006 96 360 3.0 0.0 0.00 0.00 0.00 10 1000.5
20260903214555 96 360 2.0 0.0 0.00 0.00 0.00 10 1000.6
20260903214028 96 360 2.0 0.0 0.00 0.00 0.00 11 1000.5
20260903213506 95 360 2.0 0.0 0.00 0.00 0.00 11 1000.6
20260903213055 95 360 2.0 0.0 0.00 0.00 0.00 11 1000.7
20260903212530 95 360 2.0 0.0 0.00 0.00 0.00 12 1000.9
20260903212011 95 360 3.0 0.0 0.00 0.00 0.00 11 1001.0
20260903211552 95 360 3.0 0.0 0.00 0.00 0.00 11 1000.8
20260903211033 95 360 2.0 0.0 0.00 0.00 0.00 11 1000.9
20260903210511 95 360 2.0 0.0 0.00 0.00 0.00 11 1000.9
20260903210055 95 360 2.0 0.0 0.00 0.00 0.00 12 1001.2
20260903205531 95 360 2.0 0.0 0.00 0.00 0.00 11 1000.8
20260903205016 95 360 2.0 0.0 0.00 0.00 0.00 11 1000.9
20260903204602 95 360 2.0 0.0 0.00 0.00 0.00 11 1000.9
20260903204035 95 360 2.0 0.0 0.00 0.00 0.00 12 1000.9
20260903203514 94 360 2.0 0.0 0.00 0.00 0.00 12 1001.1
20260903203057 95 360 2.0 0.0 0.00 0.00 0.00 11 1001.1
20260903202542 94 360 2.0 0.0 0.00 0.00 0.00 12 1001.3
20260903202020 94 360 2.0 0.0 0.00 0.00 0.00 12 1001.3
20260903201602 93 360 2.0 0.0 0.00 0.00 0.00 12 1001.4
20260903201044 94 360 2.0 0.0 0.00 0.00 0.00 12 1001.5
20260903200523 93 360 2.0 0.0 0.00 0.00 0.00 12 1001.6
20260903200009 93 360 2.0 0.0 0.00 0.00 0.00 11 1001.7
20260903195546 94 360 2.0 0.0 0.00 0.00 0.00 12 1001.7
20260903195023 93 360 2.0 0.0 0.00 0.00 0.00 12 1001.7
20260903194503 92 360 2.0 0.0 0.00 0.00 0.00 12 1001.8
20260903194046 93 360 2.0 0.0 0.00 0.00 0.00 12 1001.8
20260903193521 92 360 2.0 0.0 0.00 0.00 0.00 12 1001.9
20260903193103 93 360 2.0 0.0 0.00 0.00 0.00 13 1001.9
20260903192543 91 360 2.0 0.0 0.00 0.00 0.00 12 1002.3
20260903192020 91 360 2.0 0.0 0.00 0.00 0.00 12 1002.3
20260903191603 91 360 3.0 0.0 0.00 0.00 0.00 13 1002.3
20260903191051 89 360 4.0 0.0 0.00 0.00 0.00 13 1002.5
20260903190533 90 360 3.0 0.0 0.00 0.00 0.00 12 1002.6
20260903190011 89 360 3.0 0.0 0.00 0.00 0.00 12 1002.7
20260903185558 89 360 2.0 0.0 0.00 0.00 0.00 14 1002.6
20260903185033 90 360 2.0 0.0 0.00 0.00 0.00 13 1002.9
20260903184512 90 360 1.0 0.0 0.00 0.00 0.00 13 1002.9
20260903184054 89 360 1.0 0.0 0.00 0.00 0.00 14 1002.9
20260903183530 90 360 2.0 0.0 0.00 0.00 0.00 14 1003.1
20260903183015 88 360 2.0 0.0 0.00 0.00 0.00 14 1003.3
20260903182553 88 360 2.0 0.0 0.00 0.00 0.00 14 1003.4
20260903182032 88 360 2.0 0.0 0.00 0.00 0.00 15 1003.5
20260903181508 88 360 2.0 0.0 0.00 0.00 0.00 14 1003.6
20260903181055 87 360 2.0 0.0 0.00 0.00 0.00 15 1003.6
20260903180531 87 360 2.0 0.0 0.00 0.00 0.00 15 1003.6
20260903180025 87 360 2.0 0.0 0.00 0.00 0.00 15 1003.7
20260903175552 87 360 2.0 0.0 0.00 0.00 0.00 15 1003.6
20260903175030 87 360 2.0 0.0 0.00 0.00 0.00 16 1003.8
20260903174507 87 360 1.0 0.0 0.00 0.00 0.00 15 1003.9
20260903174053 87 360 2.0 0.0 0.00 0.00 0.00 16 1003.9
20260903173528 86 360 2.0 0.0 0.00 0.00 0.00 16 1003.9
20260903173007 87 360 2.0 0.0 0.00 0.00 0.00 16 1003.9
20260903172554 86 360 2.0 0.0 0.00 0.00 0.00 16 1003.9
20260903172027 85 360 2.0 0.0 0.00 0.00 0.00 17 1004.1
20260903171506 86 360 1.0 0.0 0.00 0.00 0.00 16 1004.0
20260903171048 85 360 1.0 0.0 0.00 0.00 0.00 17 1004.1
20260903170528 85 360 2.0 0.0 0.00 0.00 0.00 17 1004.0
20260903170004 84 360 2.0 0.0 0.00 0.00 0.00 17 1004.2
20260903165549 85 360 1.0 0.0 0.00 0.00 0.00 17 1003.9
20260903165029 84 360 1.0 0.0 0.00 0.00 0.00 17 1004.1
20260903164513 84 360 1.0 0.0 0.00 0.00 0.00 17 1004.0
20260903164054 84 360 1.0 0.0 0.00 0.00 0.00 18 1004.0
20260903163533 84 360 1.0 0.0 0.00 0.00 0.00 17 1004.0
20260903163011 83 360 1.0 0.0 0.00 0.00 0.00 17 1004.0
20260903162552 84 360 1.0 0.0 0.00 0.00 0.00 17 1004.0
20260903162033 83 360 1.0 0.0 0.00 0.00 0.00 18 1004.0
20260903161510 82 360 1.0 0.0 0.00 0.00 0.00 18 1004.0
20260903161054 82 360 1.0 0.0 0.00 0.00 0.00 19 1004.1
20260903160533 81 360 1.0 0.0 0.00 0.00 0.00 19 1004.2
20260903160013 81 360 1.0 0.0 0.00 0.00 0.00 19 1004.2
20260903155552 81 360 1.0 0.0 0.00 0.00 0.00 20 1004.0
20260903155034 80 360 1.0 0.0 0.00 0.00 0.00 20 1004.0
20260903154509 80 360 1.0 0.0 0.00 0.00 0.00 20 1004.1
20260903154051 79 360 2.0 0.0 0.00 0.00 0.00 21 1004.0
20260903153533 79 360 2.0 0.0 0.00 0.00 0.00 21 1004.1
20260903153015 78 360 3.0 0.0 0.00 0.00 0.00 21 1004.1
20260903152557 78 360 3.0 0.0 0.00 0.00 0.00 22 1004.4
20260903152042 77 360 4.0 0.0 0.00 0.00 0.00 22 1004.4
20260903151519 77 360 4.0 0.0 0.00 0.00 0.00 22 1004.4
20260903151100 76 360 4.0 0.0 0.00 0.00 0.00 21 1004.4
20260903150536 76 360 4.0 0.0 0.00 0.00 0.00 21 1004.3
20260903150016 76 360 4.0 0.0 0.00 0.00 0.00 21 1004.5
20260903145557 76 360 4.0 0.0 0.00 0.00 0.00 21 1004.4
20260903145033 76 360 3.0 0.0 0.00 0.00 0.00 21 1004.3
20260903144511 75 360 3.0 0.0 0.00 0.00 0.00 21 1004.3
20260903144054 75 360 3.0 0.0 0.00 0.00 0.00 22 1004.5
20260903143532 75 360 3.0 0.0 0.00 0.00 0.00 22 1004.4
20260903143012 74 360 3.0 0.0 0.00 0.00 0.00 22 1004.4
20260903142553 74 360 3.0 0.0 0.00 0.00 0.00 23 1004.3
20260903142031 73 360 2.0 0.0 0.00 0.00 0.00 23 1004.3
20260903141514 73 360 1.0 0.0 0.00 0.00 0.00 23 1004.3
20260903141053 73 360 1.0 0.0 0.00 0.00 0.00 23 1004.3
20260903140530 73 360 1.0 0.0 0.00 0.00 0.00 23 1004.2
20260903140008 73 360 1.0 0.0 0.00 0.00 0.00 23 1004.2
20260903135551 72 360 1.0 0.0 0.00 0.00 0.00 23 1003.9
20260903135029 72 360 1.0 0.0 0.00 0.00 0.00 24 1003.9
20260903134507 71 360 1.0 0.0 0.00 0.00 0.00 24 1003.8
20260903134051 71 360 1.0 0.0 0.00 0.00 0.00 24 1003.7
20260903133535 71 360 1.0 0.0 0.00 0.00 0.00 24 1003.7
20260903133020 71 360 1.0 0.0 0.00 0.00 0.00 24 1003.7
20260903132603 71 360 1.0 0.0 0.00 0.00 0.00 24 1003.5
20260903132050 71 360 1.0 0.0 0.00 0.00 0.00 24 1003.5
20260903131531 71 360 2.0 0.0 0.00 0.00 0.00 24 1003.5
20260903131010 71 360 2.0 0.0 0.00 0.00 0.00 25 1003.5
20260903130555 71 360 1.0 0.0 0.00 0.00 0.00 24 1003.4
20260903130033 71 360 1.0 0.0 0.00 0.00 0.00 24 1003.4
20260903125512 71 360 1.0 0.0 0.00 0.00 0.00 24 1003.3
20260903125051 71 360 1.0 0.0 0.00 0.00 0.00 24 1003.1
20260903124533 71 360 1.0 0.0 0.00 0.00 0.00 24 1003.0
20260903124013 71 360 1.0 0.0 0.00 0.00 0.00 24 1003.0
20260903123556 71 360 1.0 0.0 0.00 0.00 0.00 24 1003.2
20260903123036 70 360 1.0 0.0 0.00 0.00 0.00 24 1003.1
20260903122513 70 360 1.0 0.0 0.00 0.00 0.00 24 1003.0
20260903122101 71 360 1.0 0.0 0.00 0.00 0.00 24 1003.0
20260903121547 71 360 1.0 0.0 0.00 0.00 0.00 24 1002.8
20260903121022 71 360 1.0 0.0 0.00 0.00 0.00 24 1002.7
20260903120606 71 360 1.0 0.0 0.00 0.00 0.00 24 1002.8
20260903120043 71 360 1.0 0.0 0.00 0.00 0.00 23 1002.7
20260903115523 71 360 1.0 0.0 0.00 0.00 0.00 23 1002.6
20260903115002 71 360 1.0 0.0 0.00 0.00 0.00 23 1002.6
20260903114550 72 360 1.0 0.0 0.00 0.00 0.00 23 1002.7
20260903114022 72 360 1.0 0.0 0.00 0.00 0.00 23 1002.6
20260903113503 72 360 2.0 0.0 0.00 0.00 0.00 22 1002.6
20260903113050 72 360 1.0 0.0 0.00 0.00 0.00 22 1002.5
20260903112532 72 360 1.0 0.0 0.00 0.00 0.00 22 1002.6
20260903112012 72 360 1.0 0.0 0.00 0.00 0.00 22 1002.5
20260903111613 72 360 1.0 0.0 0.00 0.00 0.00 22 1002.4
20260903111035 72 360 1.0 0.0 0.00 0.00 0.00 22 1002.6
20260903110517 72 360 1.0 0.0 0.00 0.00 0.00 22 1002.5
20260903110125 73 360 1.0 0.0 0.00 0.00 0.00 21 1002.4
20260903105540 74 360 1.0 0.0 0.00 0.00 0.00 22 1002.3
20260903105019 73 360 1.0 0.0 0.00 0.00 0.00 21 1002.3
20260903104501 74 360 1.0 0.0 0.00 0.00 0.00 21 1002.3
20260903104045 74 360 1.0 0.0 0.00 0.00 0.00 21 1002.3
20260903103527 74 360 1.0 0.0 0.00 0.00 0.00 21 1002.4
20260903103003 74 360 1.0 0.0 0.00 0.00 0.00 21 1002.4
20260903102550 74 360 1.0 0.0 0.00 0.00 0.00 21 1002.4
20260903102038 74 360 1.0 0.0 0.00 0.00 0.00 21 1002.3
20260903101520 74 360 1.0 0.0 0.00 0.00 0.00 21 1002.4
20260903101104 75 360 1.0 0.0 0.00 0.00 0.00 20 1002.5
20260903100543 74 360 1.0 0.0 0.00 0.00 0.00 21 1002.5
20260903100027 73 360 1.0 0.0 0.00 0.00 0.00 22 1002.6
20260903095502 73 360 1.0 0.0 0.00 0.00 0.00 21 1002.6
20260903095050 75 360 0.0 0.0 0.00 0.00 0.00 21 1002.7
20260903094547 75 360 0.0 0.0 0.00 0.00 0.00 21 1002.7
20260903094011 75 360 1.0 0.0 0.00 0.00 0.00 21 1002.7
20260903093557 75 360 1.0 0.0 0.00 0.00 0.00 20 1002.6
20260903093039 75 360 1.0 0.0 0.00 0.00 0.00 20 1002.6
20260903092515 75 360 1.0 0.0 0.00 0.00 0.00 20 1002.5
20260903092058 76 360 0.0 0.0 0.00 0.00 0.00 19 1002.5
20260903091538 76 360 0.0 0.0 0.00 0.00 0.00 19 1002.6
20260903091019 76 360 0.0 0.0 0.00 0.00 0.00 19 1002.6
20260903090602 76 360 0.0 0.0 0.00 0.00 0.00 19 1002.6
20260903090038 76 360 0.0 0.0 0.00 0.00 0.00 17 1002.7
20260903085517 76 360 0.0 0.0 0.00 0.00 0.00 17 1002.7
20260903085057 77 360 0.0 0.0 0.00 0.00 0.00 17 1002.8
20260903084539 77 360 0.0 0.0 0.00 0.00 0.00 17 1002.8
20260903084018 77 360 0.0 0.0 0.00 0.00 0.00 16 1002.8
20260903083600 77 360 0.0 0.0 0.00 0.00 0.00 16 1002.8
20260903083039 78 360 0.0 0.0 0.00 0.00 0.00 15 1002.8
20260903082519 78 360 0.0 0.0 0.00 0.00 0.00 15 1002.8
20260903082101 78 360 0.0 0.0 0.00 0.00 0.00 15 1002.8
20260903081545 78 360 0.0 0.0 0.00 0.00 0.00 15 1002.6
20260903081020 78 360 0.0 0.0 0.00 0.00 0.00 15 1002.6
20260903080603 78 360 0.0 0.0 0.00 0.00 0.00 14 1002.6
20260903080042 78 360 0.0 0.0 0.00 0.00 0.00 14 1002.6
20260903075521 79 360 0.0 0.0 0.00 0.00 0.00 14 1002.8
20260903075103 79 360 0.0 0.0 0.00 0.00 0.00 13 1002.7
20260903074552 79 360 0.0 0.0 0.00 0.00 0.00 13 1002.7
20260903074028 79 360 0.0 0.0 0.00 0.00 0.00 13 1002.6
20260903073503 79 360 0.0 0.0 0.00 0.00 0.00 13 1002.6
20260903073047 79 360 0.0 0.0 0.00 0.00 0.00 13 1002.6
20260903072529 79 360 0.0 0.0 0.00 0.00 0.00 12 1002.5
20260903072007 79 360 0.0 0.0 0.00 0.00 0.00 12 1002.6
20260903071554 79 360 0.0 0.0 0.00 0.00 0.00 12 1002.6
20260903071030 79 360 0.0 0.0 0.00 0.00 0.00 12 1002.4
20260903070514 79 360 0.0 0.0 0.00 0.00 0.00 12 1002.5
20260903070057 80 360 0.0 0.0 0.00 0.00 0.00 11 1002.4
20260903065539 80 360 0.0 0.0 0.00 0.00 0.00 11 1002.5
20260903065019 80 360 0.0 0.0 0.00 0.00 0.00 11 1002.4
20260903064605 79 360 0.0 0.0 0.00 0.00 0.00 11 1002.4
20260903064042 79 360 0.0 0.0 0.00 0.00 0.00 11 1002.3
20260903063521 79 360 0.0 0.0 0.00 0.00 0.00 11 1002.4
20260903063103 79 360 0.0 0.0 0.00 0.00 0.00 11 1002.4
20260903062544 79 360 0.0 0.0 0.00 0.00 0.00 11 1002.5
20260903062027 79 360 0.0 0.0 0.00 0.00 0.00 11 1002.3
20260903061604 79 360 0.0 0.0 0.00 0.00 0.00 11 1002.3
20260903061042 79 360 0.0 0.0 0.00 0.00 0.00 10 1002.2
20260903060524 79 360 1.0 0.0 0.00 0.00 0.00 10 1002.3
20260903060003 80 360 1.0 0.0 0.00 0.00 0.00 10 1002.4
20260903055547 80 360 2.0 0.0 0.00 0.00 0.00 10 1002.4
20260903055026 80 360 2.0 0.0 0.00 0.00 0.00 10 1002.5
20260903054518 80 360 2.0 0.0 0.00 0.00 0.00 10 1002.5
20260903054052 80 360 2.0 0.0 0.00 0.00 0.00 9 1002.4
20260903053534 80 360 1.0 0.0 0.00 0.00 0.00 9 1002.1
20260903053011 82 360 1.0 0.0 0.00 0.00 0.00 8 1002.1
20260903052554 83 360 1.0 0.0 0.00 0.00 0.00 8 1002.1
20260903052038 83 360 1.0 0.0 0.00 0.00 0.00 8 1002.0
20260903051519 83 360 1.0 0.0 0.00 0.00 0.00 8 1002.0
20260903051004 84 360 1.0 0.0 0.00 0.00 0.00 8 1001.9
20260903050549 83 360 1.0 0.0 0.00 0.00 0.00 8 1001.9
20260903050034 83 360 1.0 0.0 0.00 0.00 0.00 8 1002.0
20260903045521 83 360 1.0 0.0 0.00 0.00 0.00 8 1002.2
20260903045002 83 360 1.0 0.0 0.00 0.00 0.00 8 1002.2
20260903044553 83 360 0.0 0.0 0.00 0.00 0.00 8 1002.2
20260903044031 83 360 0.0 0.0 0.00 0.00 0.00 9 1002.3
20260903043507 83 360 0.0 0.0 0.00 0.00 0.00 8 1002.1
20260903043051 83 360 0.0 0.0 0.00 0.00 0.00 8 1002.1
20260903042535 84 360 1.0 0.0 0.00 0.00 0.00 8 1002.0
20260903042016 84 360 1.0 0.0 0.00 0.00 0.00 7 1002.0
20260903041605 84 360 1.0 0.0 0.00 0.00 0.00 7 1001.9
20260903041039 85 360 1.0 0.0 0.00 0.00 0.00 7 1001.8
20260903040521 85 360 1.0 0.0 0.00 0.00 0.00 7 1001.8
20260903040004 84 360 1.0 0.0 0.00 0.00 0.00 7 1001.8
20260903035547 84 360 1.0 0.0 0.00 0.00 0.00 7 1002.1
20260903035029 84 360 1.0 0.0 0.00 0.00 0.00 7 1002.0
20260903034509 84 360 1.0 0.0 0.00 0.00 0.00 7 1002.0
20260903034056 84 360 1.0 0.0 0.00 0.00 0.00 7 1002.0
20260903033538 85 360 1.0 0.0 0.00 0.00 0.00 7 1002.0
20260903033019 84 360 1.0 0.0 0.00 0.00 0.00 7 1001.9
20260903032604 84 360 1.0 0.0 0.00 0.00 0.00 7 1001.9
20260903032042 84 360 2.0 0.0 0.00 0.00 0.00 7 1001.9
20260903031521 84 360 2.0 0.0 0.00 0.00 0.00 6 1001.9
20260903031003 85 360 1.0 0.0 0.00 0.00 0.00 6 1001.9
20260903030548 85 360 0.0 0.0 0.00 0.00 0.00 6 1001.9
20260903030038 85 360 0.0 0.0 0.00 0.00 0.00 5 1001.8
20260903025505 86 360 0.0 0.0 0.00 0.00 0.00 5 1002.3
20260903025050 86 360 1.0 0.0 0.00 0.00 0.00 5 1002.2
20260903024540 86 360 1.0 0.0 0.00 0.00 0.00 5 1002.0